Time,TemperatureF,DewpointF,PressureIn,WindDirection,WindDirectionDegrees,WindSpeedMPH,WindSpeedGustMPH,Humidity,HourlyPrecipIn,Conditions,Clouds,dailyrainin,SoftwareType,DateUTC
2013-07-19 00:01:00,71.6,71.0,30.03,NNE,27,0.0,0.0,98,0.00,,---,2.26,VWS V14.01,2013-07-19 05:01:00,
2013-07-19 00:06:00,71.7,71.1,30.03,NNE,27,0.0,0.0,98,0.00,,---,0.00,VWS V14.01,2013-07-19 05:06:00,
2013-07-19 00:11:00,71.6,71.0,30.02,NNE,27,0.0,0.0,98,0.00,,---,0.00,VWS V14.01,2013-07-19 05:11:00,
2013-07-19 00:16:00,71.7,71.1,30.03,NNE,27,0.0,0.0,98,0.00,,---,0.00,VWS V14.01,2013-07-19 05:16:00,
2013-07-19 00:21:00,71.7,71.1,30.03,NNE,27,0.0,0.0,98,0.01,,---,0.01,VWS V14.01,2013-07-19 05:21:00,
2013-07-19 00:26:00,71.7,71.1,30.03,NNE,27,0.0,0.0,98,0.01,,---,0.01,VWS V14.01,2013-07-19 05:26:00,
2013-07-19 00:31:00,71.8,71.2,30.03,NNE,27,0.0,0.0,98,0.01,,---,0.01,VWS V14.01,2013-07-19 05:31:00,
2013-07-19 00:36:00,71.9,71.3,30.02,NNE,30,0.0,0.0,98,0.01,,---,0.01,VWS V14.01,2013-07-19 05:36:00,
2013-07-19 00:41:00,72.0,71.4,30.02,NNE,33,0.0,0.0,98,0.01,,---,0.01,VWS V14.01,2013-07-19 05:41:00,
2013-07-19 00:46:00,72.0,71.4,30.03,NNE,33,0.0,0.0,98,0.01,,---,0.01,VWS V14.01,2013-07-19 05:46:00,
2013-07-19 00:51:00,72.0,71.4,30.02,NNE,33,0.0,0.0,98,0.01,,---,0.01,VWS V14.01,2013-07-19 05:51:00,
2013-07-19 00:56:00,72.1,71.5,30.02,NNE,33,0.0,0.0,98,0.01,,---,0.01,VWS V14.01,2013-07-19 05:56:00,
2013-07-19 01:01:00,72.1,71.5,30.02,NNE,33,0.0,0.0,98,0.01,,---,0.01,VWS V14.01,2013-07-19 06:01:00,
2013-07-19 01:06:00,72.2,71.6,30.02,NNE,33,0.0,0.0,98,0.01,,---,0.01,VWS V14.01,2013-07-19 06:06:00,
2013-07-19 01:11:00,72.2,71.6,30.02,NNE,33,0.0,0.0,98,0.01,,---,0.01,VWS V14.01,2013-07-19 06:11:00,
2013-07-19 01:16:00,72.1,71.5,30.01,NE,39,0.0,0.0,98,0.01,,---,0.01,VWS V14.01,2013-07-19 06:16:00,
2013-07-19 01:21:00,72.1,71.5,30.01,NE,39,0.0,0.0,98,0.01,,---,0.01,VWS V14.01,2013-07-19 06:21:00,
2013-07-19 01:26:00,72.1,71.5,30.01,NE,39,0.0,0.0,98,0.01,,---,0.01,VWS V14.01,2013-07-19 06:26:00,
2013-07-19 01:31:00,72.1,71.5,30.01,NE,39,0.0,0.0,98,0.01,,---,0.01,VWS V14.01,2013-07-19 06:31:00,
2013-07-19 01:36:00,72.0,71.4,30.01,NE,39,0.0,0.0,98,0.00,,---,0.01,VWS V14.01,2013-07-19 06:36:00,
2013-07-19 01:41:00,72.0,71.4,30.01,NE,39,0.0,0.0,98,0.00,,---,0.01,VWS V14.01,2013-07-19 06:41:00,
2013-07-19 01:46:00,72.1,71.5,30.01,NE,39,0.0,0.0,98,0.00,,---,0.01,VWS V14.01,2013-07-19 06:46:00,
2013-07-19 01:51:00,72.1,71.8,30.01,NE,39,0.0,0.0,99,0.00,,---,0.01,VWS V14.01,2013-07-19 06:51:00,
2013-07-19 01:56:00,72.1,71.5,30.01,NE,39,0.0,0.0,98,0.00,,---,0.01,VWS V14.01,2013-07-19 06:56:00,
2013-07-19 02:01:00,72.1,71.5,30.01,NE,39,0.0,0.0,98,0.00,,---,0.01,VWS V14.01,2013-07-19 07:01:00,
2013-07-19 02:06:00,72.1,71.5,30.01,NE,39,0.0,0.0,98,0.00,,---,0.01,VWS V14.01,2013-07-19 07:06:00,
2013-07-19 02:11:00,72.1,71.5,30.01,NE,39,0.0,0.0,98,0.00,,---,0.01,VWS V14.01,2013-07-19 07:11:00,
2013-07-19 02:16:00,72.1,71.5,30.01,NE,39,0.0,0.0,98,0.00,,---,0.01,VWS V14.01,2013-07-19 07:16:00,
2013-07-19 02:21:00,72.1,71.5,30.00,NE,39,0.0,0.0,98,0.00,,---,0.01,VWS V14.01,2013-07-19 07:21:00,
2013-07-19 02:26:00,72.1,71.5,30.01,NE,39,0.0,0.0,98,0.00,,---,0.01,VWS V14.01,2013-07-19 07:26:00,
2013-07-19 02:31:00,72.1,71.8,30.01,NE,39,0.0,0.0,99,0.00,,---,0.01,VWS V14.01,2013-07-19 07:31:00,
2013-07-19 02:36:00,72.1,71.5,30.01,NE,39,0.0,0.0,98,0.00,,---,0.01,VWS V14.01,2013-07-19 07:36:00,
2013-07-19 02:41:00,72.1,71.5,30.00,NE,39,0.0,0.0,98,0.00,,---,0.01,VWS V14.01,2013-07-19 07:41:00,
2013-07-19 02:46:00,72.1,71.5,30.00,NE,39,0.0,0.0,98,0.00,,---,0.01,VWS V14.01,2013-07-19 07:46:00,
2013-07-19 02:51:00,72.1,71.5,30.00,NE,39,0.0,0.0,98,0.00,,---,0.01,VWS V14.01,2013-07-19 07:51:00,
2013-07-19 02:56:00,72.1,71.8,30.00,NE,39,0.0,0.0,99,0.00,,---,0.01,VWS V14.01,2013-07-19 07:56:00,
2013-07-19 03:01:00,72.1,71.8,30.00,NE,39,0.0,0.0,99,0.00,,---,0.01,VWS V14.01,2013-07-19 08:01:00,
2013-07-19 03:06:00,72.0,71.7,30.00,NE,39,0.0,0.0,99,0.00,,---,0.01,VWS V14.01,2013-07-19 08:06:00,
2013-07-19 03:11:00,72.0,71.7,30.00,NE,39,0.0,0.0,99,0.00,,---,0.01,VWS V14.01,2013-07-19 08:11:00,
2013-07-19 03:16:00,72.0,71.7,30.00,NE,39,0.0,0.0,99,0.00,,---,0.01,VWS V14.01,2013-07-19 08:16:00,
2013-07-19 03:21:00,72.0,71.7,30.00,NE,39,0.0,0.0,99,0.00,,---,0.01,VWS V14.01,2013-07-19 08:21:00,
2013-07-19 03:26:00,72.0,71.7,30.00,NE,39,0.0,0.0,99,0.00,,---,0.01,VWS V14.01,2013-07-19 08:26:00,
2013-07-19 03:31:00,72.0,71.7,30.00,NE,39,0.0,0.0,99,0.00,,---,0.01,VWS V14.01,2013-07-19 08:31:00,
2013-07-19 03:36:00,72.0,71.7,30.00,NE,39,0.0,0.0,99,0.00,,---,0.01,VWS V14.01,2013-07-19 08:36:00,
2013-07-19 03:41:00,72.0,71.7,30.00,NE,39,0.0,0.0,99,0.00,,---,0.01,VWS V14.01,2013-07-19 08:41:00,
2013-07-19 03:46:00,72.0,71.7,30.00,NE,39,0.0,0.0,99,0.00,,---,0.01,VWS V14.01,2013-07-19 08:46:00,
2013-07-19 03:51:00,71.9,71.6,30.00,NE,39,0.0,0.0,99,0.00,,---,0.01,VWS V14.01,2013-07-19 08:51:00,
2013-07-19 03:56:00,71.9,71.6,30.00,NE,39,0.0,0.0,99,0.00,,---,0.01,VWS V14.01,2013-07-19 08:56:00,
2013-07-19 04:01:00,71.9,71.6,30.00,NE,39,0.0,0.0,99,0.00,,---,0.01,VWS V14.01,2013-07-19 09:01:00,
2013-07-19 04:06:00,71.9,71.6,30.00,NE,39,0.0,0.0,99,0.00,,---,0.01,VWS V14.01,2013-07-19 09:06:00,
2013-07-19 04:11:00,71.9,71.6,30.00,NE,39,0.0,0.0,99,0.00,,---,0.01,VWS V14.01,2013-07-19 09:11:00,
2013-07-19 04:16:00,71.9,71.6,30.01,NE,39,0.0,0.0,99,0.00,,---,0.01,VWS V14.01,2013-07-19 09:16:00,
2013-07-19 04:21:00,71.9,71.6,30.01,NE,39,0.0,0.0,99,0.00,,---,0.01,VWS V14.01,2013-07-19 09:21:00,
2013-07-19 04:26:00,72.0,71.7,30.01,NE,39,0.0,0.0,99,0.00,,---,0.01,VWS V14.01,2013-07-19 09:26:00,
2013-07-19 04:31:00,72.0,71.7,30.00,NE,39,0.0,0.0,99,0.00,,---,0.01,VWS V14.01,2013-07-19 09:31:00,
2013-07-19 04:36:00,72.0,71.7,30.01,NE,39,0.0,0.0,99,0.00,,---,0.01,VWS V14.01,2013-07-19 09:36:00,
2013-07-19 04:41:00,72.0,71.7,30.01,NE,39,0.0,0.0,99,0.00,,---,0.01,VWS V14.01,2013-07-19 09:41:00,
2013-07-19 04:46:00,72.0,71.7,30.01,NE,39,0.0,0.0,99,0.00,,---,0.01,VWS V14.01,2013-07-19 09:46:00,
2013-07-19 04:51:00,72.0,71.7,30.01,NE,39,0.0,0.0,99,0.00,,---,0.01,VWS V14.01,2013-07-19 09:51:00,
2013-07-19 04:56:00,72.0,71.7,30.01,NE,39,0.0,0.0,99,0.00,,---,0.01,VWS V14.01,2013-07-19 09:56:00,
2013-07-19 05:01:00,72.1,71.8,30.01,NE,39,0.0,0.0,99,0.00,,---,0.01,VWS V14.01,2013-07-19 10:01:00,
2013-07-19 05:06:00,72.1,71.8,30.01,NE,39,0.0,0.0,99,0.00,,---,0.01,VWS V14.01,2013-07-19 10:06:00,
2013-07-19 05:11:00,72.1,71.8,30.02,NE,39,0.0,0.0,99,0.00,,---,0.01,VWS V14.01,2013-07-19 10:11:00,
2013-07-19 05:16:00,72.2,71.9,30.02,NE,39,0.0,0.0,99,0.00,,---,0.01,VWS V14.01,2013-07-19 10:16:00,
2013-07-19 05:21:00,72.2,71.9,30.02,NE,39,0.0,0.0,99,0.00,,---,0.01,VWS V14.01,2013-07-19 10:21:00,
2013-07-19 05:26:00,72.2,71.9,30.02,NE,39,0.0,0.0,99,0.00,,---,0.01,VWS V14.01,2013-07-19 10:26:00,
2013-07-19 05:31:00,72.2,71.9,30.02,NE,39,0.0,0.0,99,0.00,,---,0.01,VWS V14.01,2013-07-19 10:31:00,
2013-07-19 05:36:00,72.2,71.9,30.02,NE,39,0.0,0.0,99,0.00,,---,0.01,VWS V14.01,2013-07-19 10:36:00,
2013-07-19 05:41:00,72.2,71.9,30.02,NE,39,0.0,0.0,99,0.00,,---,0.01,VWS V14.01,2013-07-19 10:41:00,
2013-07-19 05:46:00,72.2,71.9,30.02,SSW,203,0.0,0.0,99,0.00,,---,0.01,VWS V14.01,2013-07-19 10:46:00,
2013-07-19 05:51:00,72.2,71.9,30.02,SSW,203,0.0,0.0,99,0.00,,---,0.01,VWS V14.01,2013-07-19 10:51:00,
2013-07-19 05:56:00,72.2,71.9,30.02,SSW,199,0.0,0.0,99,0.00,,---,0.01,VWS V14.01,2013-07-19 10:56:00,
2013-07-19 06:01:00,72.2,71.9,30.02,SSW,200,0.0,0.0,99,0.00,,---,0.01,VWS V14.01,2013-07-19 11:01:00,
2013-07-19 06:06:00,72.2,71.9,30.02,SSW,200,0.0,0.0,99,0.00,,---,0.01,VWS V14.01,2013-07-19 11:06:00,
2013-07-19 06:11:00,72.2,71.9,30.02,SSW,200,0.0,0.0,99,0.00,,---,0.01,VWS V14.01,2013-07-19 11:11:00,
2013-07-19 06:16:00,72.2,71.9,30.03,SSW,200,0.0,0.0,99,0.00,,---,0.01,VWS V14.01,2013-07-19 11:16:00,
2013-07-19 06:21:00,72.2,71.9,30.03,SSW,200,0.0,0.0,99,0.00,,---,0.01,VWS V14.01,2013-07-19 11:21:00,
2013-07-19 06:26:00,72.3,72.0,30.03,SSW,200,0.0,0.0,99,0.00,,---,0.01,VWS V14.01,2013-07-19 11:26:00,
2013-07-19 06:31:00,72.3,72.0,30.03,SSW,200,0.0,0.0,99,0.00,,---,0.01,VWS V14.01,2013-07-19 11:31:00,
2013-07-19 06:36:00,72.3,72.0,30.03,SSW,200,0.0,0.0,99,0.00,,---,0.01,VWS V14.01,2013-07-19 11:36:00,
2013-07-19 06:41:00,72.4,72.1,30.03,SSW,200,0.0,0.0,99,0.00,,---,0.01,VWS V14.01,2013-07-19 11:41:00,
2013-07-19 06:46:00,72.4,72.1,30.03,SSW,200,0.0,0.0,99,0.00,,---,0.01,VWS V14.01,2013-07-19 11:46:00,
2013-07-19 06:51:00,72.5,72.2,30.03,SSW,200,0.0,0.0,99,0.00,,---,0.01,VWS V14.01,2013-07-19 11:51:00,
2013-07-19 06:56:00,72.6,72.3,30.03,SSW,200,0.0,0.0,99,0.00,,---,0.01,VWS V14.01,2013-07-19 11:56:00,
2013-07-19 07:01:00,72.8,72.5,30.03,SSW,200,0.0,0.0,99,0.00,,---,0.01,VWS V14.01,2013-07-19 12:01:00,
2013-07-19 07:06:00,72.9,72.6,30.03,SSW,200,0.0,0.0,99,0.00,,---,0.01,VWS V14.01,2013-07-19 12:06:00,
2013-07-19 07:11:00,73.0,72.7,30.03,SSW,200,0.0,0.0,99,0.00,,---,0.01,VWS V14.01,2013-07-19 12:11:00,
2013-07-19 07:16:00,73.1,72.8,30.03,SSW,200,0.0,0.0,99,0.00,,---,0.01,VWS V14.01,2013-07-19 12:16:00,
2013-07-19 07:21:00,73.2,72.9,30.03,SSW,199,0.0,0.0,99,0.00,,---,0.01,VWS V14.01,2013-07-19 12:21:00,
2013-07-19 07:26:00,73.3,73.0,30.03,SSW,200,0.0,0.0,99,0.00,,---,0.01,VWS V14.01,2013-07-19 12:26:00,
2013-07-19 07:31:00,73.4,73.1,30.03,SSW,199,0.0,0.0,99,0.00,,---,0.01,VWS V14.01,2013-07-19 12:31:00,
2013-07-19 07:36:00,73.5,73.2,30.03,SSW,199,0.0,0.0,99,0.00,,---,0.01,VWS V14.01,2013-07-19 12:36:00,
2013-07-19 07:41:00,73.4,73.1,30.03,SSW,199,0.0,0.0,99,0.00,,---,0.01,VWS V14.01,2013-07-19 12:41:00,
2013-07-19 07:46:00,73.4,73.1,30.04,SSW,200,0.0,0.0,99,0.00,,---,0.01,VWS V14.01,2013-07-19 12:46:00,
2013-07-19 07:51:00,73.4,73.1,30.04,SSW,199,0.0,0.0,99,0.00,,---,0.01,VWS V14.01,2013-07-19 12:51:00,
2013-07-19 07:56:00,73.6,73.3,30.03,SSW,200,0.0,0.0,99,0.00,,---,0.01,VWS V14.01,2013-07-19 12:56:00,
2013-07-19 08:01:00,73.7,73.4,30.03,SSW,200,0.0,0.0,99,0.00,,---,0.01,VWS V14.01,2013-07-19 13:01:00,
2013-07-19 08:06:00,73.7,73.4,30.04,SSW,199,0.0,0.0,99,0.00,,---,0.01,VWS V14.01,2013-07-19 13:06:00,
2013-07-19 08:11:00,73.7,73.4,30.03,SSW,199,0.0,0.0,99,0.00,,---,0.01,VWS V14.01,2013-07-19 13:11:00,
2013-07-19 08:16:00,73.6,73.0,30.03,SSW,192,0.0,0.0,98,0.00,,---,0.01,VWS V14.01,2013-07-19 13:16:00,
2013-07-19 08:21:00,73.7,73.1,30.04,SW,219,0.0,0.0,98,0.00,,---,0.01,VWS V14.01,2013-07-19 13:21:00,
2013-07-19 08:26:00,73.7,73.1,30.04,SW,223,0.0,0.0,98,0.00,,---,0.01,VWS V14.01,2013-07-19 13:26:00,
2013-07-19 08:31:00,73.8,73.2,30.04,WSW,238,0.0,0.0,98,0.00,,---,0.01,VWS V14.01,2013-07-19 13:31:00,
2013-07-19 08:36:00,73.9,73.3,30.04,WSW,238,0.0,0.0,98,0.00,,---,0.01,VWS V14.01,2013-07-19 13:36:00,
2013-07-19 08:41:00,74.0,73.4,30.04,WSW,238,0.0,0.0,98,0.00,,---,0.01,VWS V14.01,2013-07-19 13:41:00,
2013-07-19 08:46:00,74.1,73.2,30.04,SW,229,0.0,0.0,97,0.00,,---,0.01,VWS V14.01,2013-07-19 13:46:00,
2013-07-19 08:51:00,74.1,73.2,30.04,SW,217,0.0,0.0,97,0.00,,---,0.01,VWS V14.01,2013-07-19 13:51:00,
2013-07-19 08:56:00,74.2,73.3,30.04,SSW,201,0.0,0.0,97,0.00,,---,0.01,VWS V14.01,2013-07-19 13:56:00,
2013-07-19 09:01:00,74.5,73.6,30.04,SSW,213,0.0,0.0,97,0.00,,---,0.01,VWS V14.01,2013-07-19 14:01:00,
2013-07-19 09:06:00,74.5,73.6,30.04,South,187,0.0,0.0,97,0.00,,---,0.01,VWS V14.01,2013-07-19 14:06:00,
2013-07-19 09:11:00,74.6,73.4,30.04,South,188,0.0,0.0,96,0.00,,---,0.01,VWS V14.01,2013-07-19 14:11:00,
2013-07-19 09:16:00,74.8,73.6,30.04,SSW,192,0.0,0.0,96,0.00,,---,0.01,VWS V14.01,2013-07-19 14:16:00,
2013-07-19 09:21:00,74.9,73.4,30.04,South,181,0.0,0.0,95,0.00,,---,0.01,VWS V14.01,2013-07-19 14:21:00,
2013-07-19 09:26:00,75.2,73.7,30.04,South,175,0.0,0.0,95,0.00,,---,0.01,VWS V14.01,2013-07-19 14:26:00,
2013-07-19 09:31:00,75.6,74.1,30.04,SSW,197,0.0,0.0,95,0.00,,---,0.01,VWS V14.01,2013-07-19 14:31:00,
2013-07-19 09:36:00,76.1,74.6,30.04,SSW,202,0.0,0.0,95,0.00,,---,0.01,VWS V14.01,2013-07-19 14:36:00,
2013-07-19 09:41:00,76.6,74.8,30.04,SSW,196,0.0,0.0,94,0.00,,---,0.01,VWS V14.01,2013-07-19 14:41:00,
2013-07-19 09:46:00,76.9,74.7,30.04,SSE,168,0.0,0.0,93,0.00,,---,0.01,VWS V14.01,2013-07-19 14:46:00,
2013-07-19 09:51:00,77.5,75.6,30.04,SSE,160,0.0,0.0,94,0.00,,---,0.01,VWS V14.01,2013-07-19 14:51:00,
2013-07-19 09:56:00,77.9,75.4,30.04,SSE,168,0.0,0.0,92,0.00,,---,0.01,VWS V14.01,2013-07-19 14:56:00,
2013-07-19 10:01:00,77.7,74.2,30.04,SSE,150,0.0,0.0,89,0.00,,---,0.01,VWS V14.01,2013-07-19 15:01:00,
2013-07-19 10:06:00,77.8,75.0,30.04,SSE,159,0.0,0.0,91,0.00,,---,0.01,VWS V14.01,2013-07-19 15:06:00,
2013-07-19 10:11:00,78.1,74.6,30.04,South,191,0.0,0.0,89,0.00,,---,0.01,VWS V14.01,2013-07-19 15:11:00,
2013-07-19 10:16:00,78.7,75.5,30.04,ESE,122,0.0,0.0,90,0.00,,---,0.01,VWS V14.01,2013-07-19 15:16:00,
2013-07-19 10:21:00,79.3,75.4,30.04,SSE,157,0.0,0.0,88,0.00,,---,0.01,VWS V14.01,2013-07-19 15:21:00,
2013-07-19 10:26:00,79.6,75.4,30.04,SE,140,0.0,0.0,87,0.00,,---,0.01,VWS V14.01,2013-07-19 15:26:00,
2013-07-19 10:31:00,79.9,75.3,30.04,SSE,163,0.0,0.0,86,0.00,,---,0.01,VWS V14.01,2013-07-19 15:31:00,
2013-07-19 10:36:00,80.1,75.5,30.04,ESE,113,0.0,0.0,86,0.00,,---,0.01,VWS V14.01,2013-07-19 15:36:00,
2013-07-19 10:41:00,80.4,76.5,30.04,ESE,113,0.0,0.0,88,0.00,,---,0.01,VWS V14.01,2013-07-19 15:41:00,
2013-07-19 10:46:00,80.8,76.2,30.03,SE,142,0.0,0.0,86,0.00,,---,0.01,VWS V14.01,2013-07-19 15:46:00,
2013-07-19 10:51:00,81.3,75.3,30.03,SE,140,0.0,0.0,82,0.00,,---,0.01,VWS V14.01,2013-07-19 15:51:00,
2013-07-19 10:56:00,81.9,76.2,30.03,SSE,165,0.0,0.0,83,0.00,,---,0.01,VWS V14.01,2013-07-19 15:56:00,
2013-07-19 11:01:00,82.2,75.8,30.03,SE,132,0.0,0.0,81,0.00,,---,0.01,VWS V14.01,2013-07-19 16:01:00,
2013-07-19 11:06:00,82.3,75.9,30.03,SSE,160,0.0,0.0,81,0.00,,---,0.01,VWS V14.01,2013-07-19 16:06:00,
2013-07-19 11:11:00,82.7,76.3,30.03,SSE,148,0.0,0.0,81,0.00,,---,0.01,VWS V14.01,2013-07-19 16:11:00,
2013-07-19 11:16:00,82.9,76.5,30.03,South,170,0.0,0.0,81,0.00,,---,0.01,VWS V14.01,2013-07-19 16:16:00,
2013-07-19 11:21:00,83.6,76.4,30.03,SE,124,0.0,0.0,79,0.00,,---,0.01,VWS V14.01,2013-07-19 16:21:00,
2013-07-19 11:26:00,84.0,76.4,30.03,SSE,147,0.0,0.0,78,0.00,,---,0.01,VWS V14.01,2013-07-19 16:26:00,
2013-07-19 11:31:00,84.4,76.0,30.03,SSE,166,0.0,0.0,76,0.00,,---,0.01,VWS V14.01,2013-07-19 16:31:00,
2013-07-19 11:36:00,84.7,77.5,30.03,ENE,70,0.0,0.0,79,0.00,,---,0.01,VWS V14.01,2013-07-19 16:36:00,
2013-07-19 11:41:00,84.9,76.5,30.02,ESE,105,0.0,0.0,76,0.00,,---,0.01,VWS V14.01,2013-07-19 16:41:00,
2013-07-19 11:46:00,84.8,76.0,30.03,SSE,160,0.0,0.0,75,0.00,,---,0.01,VWS V14.01,2013-07-19 16:46:00,
2013-07-19 11:51:00,84.6,76.2,30.02,SSE,165,0.0,0.0,76,0.00,,---,0.01,VWS V14.01,2013-07-19 16:51:00,
2013-07-19 11:56:00,84.7,76.3,30.02,SSE,153,0.0,0.0,76,0.00,,---,0.01,VWS V14.01,2013-07-19 16:56:00,
2013-07-19 12:01:00,84.8,76.0,30.02,South,188,0.0,0.0,75,0.00,,---,0.01,VWS V14.01,2013-07-19 17:01:00,
2013-07-19 12:06:00,85.3,77.3,30.02,SE,131,0.0,0.0,77,0.00,,---,0.01,VWS V14.01,2013-07-19 17:06:00,
2013-07-19 12:11:00,85.6,76.4,30.02,South,172,0.0,0.0,74,0.00,,---,0.01,VWS V14.01,2013-07-19 17:11:00,
2013-07-19 12:16:00,85.6,76.8,30.01,SSW,208,0.0,0.0,75,0.00,,---,0.01,VWS V14.01,2013-07-19 17:16:00,
2013-07-19 12:21:00,86.0,75.9,30.01,SE,135,0.0,0.0,72,0.00,,---,0.01,VWS V14.01,2013-07-19 17:21:00,
2013-07-19 12:26:00,85.9,75.8,30.01,SE,133,0.0,0.0,72,0.00,,---,0.01,VWS V14.01,2013-07-19 17:26:00,
2013-07-19 12:31:00,85.9,75.8,30.01,SE,140,0.0,0.0,72,0.00,,---,0.01,VWS V14.01,2013-07-19 17:31:00,
2013-07-19 12:36:00,86.1,76.4,30.01,ESE,117,0.0,0.0,73,0.00,,---,0.01,VWS V14.01,2013-07-19 17:36:00,
2013-07-19 12:41:00,86.5,76.4,30.00,SE,126,0.0,0.0,72,0.00,,---,0.01,VWS V14.01,2013-07-19 17:41:00,
2013-07-19 12:46:00,86.6,75.7,30.00,ENE,68,0.0,0.0,70,0.00,,---,0.01,VWS V14.01,2013-07-19 17:46:00,
2013-07-19 12:51:00,86.8,77.1,30.00,South,172,0.0,0.0,73,0.00,,---,0.01,VWS V14.01,2013-07-19 17:51:00,
2013-07-19 12:56:00,87.2,76.2,30.00,ESE,119,0.0,0.0,70,0.00,,---,0.01,VWS V14.01,2013-07-19 17:56:00,
2013-07-19 13:01:00,87.0,76.5,30.00,East,86,0.0,0.0,71,0.00,,---,0.01,VWS V14.01,2013-07-19 18:01:00,
2013-07-19 13:06:00,86.8,75.8,29.99,ESE,112,0.0,0.0,70,0.00,,---,0.01,VWS V14.01,2013-07-19 18:06:00,
2013-07-19 13:11:00,86.6,76.1,29.99,East,101,0.0,0.0,71,0.00,,---,0.01,VWS V14.01,2013-07-19 18:11:00,
2013-07-19 13:16:00,86.8,76.3,29.99,NE,42,0.0,0.0,71,0.00,,---,0.01,VWS V14.01,2013-07-19 18:16:00,
2013-07-19 13:21:00,86.9,76.8,29.98,ESE,102,0.0,0.0,72,0.00,,---,0.01,VWS V14.01,2013-07-19 18:21:00,
2013-07-19 13:26:00,87.2,75.8,29.99,ESE,106,0.0,0.0,69,0.00,,---,0.01,VWS V14.01,2013-07-19 18:26:00,
2013-07-19 13:31:00,87.4,76.4,29.98,ESE,107,0.0,0.0,70,0.00,,---,0.01,VWS V14.01,2013-07-19 18:31:00,
2013-07-19 13:36:00,87.5,76.1,29.98,SSE,147,0.0,0.0,69,0.00,,---,0.01,VWS V14.01,2013-07-19 18:36:00,
2013-07-19 13:41:00,87.3,75.0,29.98,East,87,0.0,0.0,67,0.00,,---,0.01,VWS V14.01,2013-07-19 18:41:00,
2013-07-19 13:46:00,87.5,76.9,29.98,SE,136,0.0,0.0,71,0.00,,---,0.01,VWS V14.01,2013-07-19 18:46:00,
2013-07-19 13:51:00,88.0,76.6,29.98,ESE,114,0.0,0.0,69,0.00,,---,0.01,VWS V14.01,2013-07-19 18:51:00,
2013-07-19 13:56:00,88.5,77.0,29.97,East,84,0.0,0.0,69,0.00,,---,0.01,VWS V14.01,2013-07-19 18:56:00,
2013-07-19 14:01:00,88.5,75.7,29.97,East,101,0.0,0.0,66,0.00,,---,0.01,VWS V14.01,2013-07-19 19:01:00,
2013-07-19 14:06:00,88.5,75.7,29.97,SSE,157,0.0,0.0,66,0.00,,---,0.01,VWS V14.01,2013-07-19 19:06:00,
2013-07-19 14:11:00,88.5,75.7,29.97,SE,132,0.0,0.0,66,0.00,,---,0.01,VWS V14.01,2013-07-19 19:11:00,
2013-07-19 14:15:00,88.4,75.1,29.97,South,184,0.0,0.0,65,0.00,,---,0.01,VWS V14.01,2013-07-19 19:15:00,
2013-07-19 14:20:00,88.9,75.6,29.97,ESE,106,0.0,0.0,65,0.00,,---,0.01,VWS V14.01,2013-07-19 19:20:00,
2013-07-19 14:25:00,88.7,74.5,29.96,SSW,194,0.0,0.0,63,0.00,,---,0.01,VWS V14.01,2013-07-19 19:25:00,
2013-07-19 14:30:00,88.7,75.4,29.96,SSE,164,0.0,0.0,65,0.00,,---,0.01,VWS V14.01,2013-07-19 19:30:00,
2013-07-19 14:35:00,89.3,75.1,29.95,SSE,163,0.0,0.0,63,0.00,,---,0.01,VWS V14.01,2013-07-19 19:35:00,
2013-07-19 14:40:00,89.9,74.7,29.95,ESE,111,0.0,0.0,61,0.00,,---,0.01,VWS V14.01,2013-07-19 19:40:00,
2013-07-19 14:45:00,89.9,74.7,29.95,South,174,0.0,0.0,61,0.00,,---,0.01,VWS V14.01,2013-07-19 19:45:00,
2013-07-19 14:50:00,89.8,74.6,29.95,South,169,0.0,0.0,61,0.00,,---,0.01,VWS V14.01,2013-07-19 19:50:00,
2013-07-19 14:55:00,89.8,74.1,29.95,SE,144,0.0,0.0,60,0.00,,---,0.01,VWS V14.01,2013-07-19 19:55:00,
2013-07-19 15:00:00,90.0,74.3,29.94,SE,127,0.0,0.0,60,0.00,,---,0.01,VWS V14.01,2013-07-19 20:00:00,
2013-07-19 15:05:00,89.9,75.1,29.94,South,172,0.0,0.0,62,0.00,,---,0.01,VWS V14.01,2013-07-19 20:05:00,
2013-07-19 15:10:00,89.6,73.9,29.94,SE,136,0.0,0.0,60,0.00,,---,0.01,VWS V14.01,2013-07-19 20:10:00,
2013-07-19 15:15:00,89.6,74.4,29.94,SSE,153,0.0,0.0,61,0.00,,---,0.01,VWS V14.01,2013-07-19 20:15:00,
2013-07-19 15:20:00,89.3,73.6,29.93,SSE,157,0.0,0.0,60,0.00,,---,0.01,VWS V14.01,2013-07-19 20:20:00,
2013-07-19 15:25:00,89.3,74.1,29.93,SE,143,0.0,0.0,61,0.00,,---,0.01,VWS V14.01,2013-07-19 20:25:00,
2013-07-19 15:30:00,89.4,74.2,29.93,SE,132,0.0,0.0,61,0.00,,---,0.01,VWS V14.01,2013-07-19 20:30:00,
2013-07-19 15:35:00,89.5,74.3,29.92,East,99,0.0,0.0,61,0.00,,---,0.01,VWS V14.01,2013-07-19 20:35:00,
2013-07-19 15:40:00,89.7,74.5,29.92,East,94,0.0,0.0,61,0.00,,---,0.01,VWS V14.01,2013-07-19 20:40:00,
2013-07-19 15:45:00,89.9,73.2,29.92,SE,127,0.0,0.0,58,0.00,,---,0.01,VWS V14.01,2013-07-19 20:45:00,
2013-07-19 15:50:00,90.1,73.8,29.92,South,178,0.0,0.0,59,0.00,,---,0.01,VWS V14.01,2013-07-19 20:50:00,
2013-07-19 15:55:00,90.1,73.8,29.92,SE,142,0.0,0.0,59,0.00,,---,0.01,VWS V14.01,2013-07-19 20:55:00,
2013-07-19 16:00:00,89.8,73.1,29.91,South,181,0.0,0.0,58,0.00,,---,0.01,VWS V14.01,2013-07-19 21:00:00,
2013-07-19 16:05:00,89.3,73.1,29.91,SSE,148,0.0,0.0,59,0.00,,---,0.01,VWS V14.01,2013-07-19 21:05:00,
2013-07-19 16:10:00,89.5,73.3,29.91,SSE,147,0.0,0.0,59,0.00,,---,0.01,VWS V14.01,2013-07-19 21:10:00,
2013-07-19 16:15:00,90.0,73.8,29.91,SE,128,0.0,0.0,59,0.00,,---,0.01,VWS V14.01,2013-07-19 21:15:00,
2013-07-19 16:20:00,89.8,73.1,29.91,ESE,107,0.0,0.0,58,0.00,,---,0.01,VWS V14.01,2013-07-19 21:20:00,
2013-07-19 16:25:00,89.3,73.6,29.91,ESE,117,0.0,0.0,60,0.00,,---,0.01,VWS V14.01,2013-07-19 21:25:00,
2013-07-19 16:30:00,89.4,74.7,29.90,ESE,123,0.0,0.0,62,0.00,,---,0.01,VWS V14.01,2013-07-19 21:30:00,
2013-07-19 16:35:00,90.0,73.8,29.91,SE,146,0.0,0.0,59,0.00,,---,0.01,VWS V14.01,2013-07-19 21:35:00,
2013-07-19 16:40:00,90.6,74.8,29.91,SSW,202,0.0,0.0,60,0.00,,---,0.01,VWS V14.01,2013-07-19 21:40:00,
2013-07-19 16:45:00,91.4,74.0,29.91,ESE,106,0.0,0.0,57,0.00,,---,0.01,VWS V14.01,2013-07-19 21:45:00,
2013-07-19 16:50:00,91.1,73.8,29.91,SE,136,0.0,0.0,57,0.00,,---,0.01,VWS V14.01,2013-07-19 21:50:00,
2013-07-19 16:55:00,90.3,73.0,29.90,SE,138,0.0,0.0,57,0.00,,---,0.01,VWS V14.01,2013-07-19 21:55:00,
2013-07-19 17:00:00,89.9,72.1,29.90,SSE,166,0.0,0.0,56,0.00,,---,0.01,VWS V14.01,2013-07-19 22:00:00,
2013-07-19 17:05:00,90.0,73.8,29.90,South,175,0.0,0.0,59,0.00,,---,0.01,VWS V14.01,2013-07-19 22:05:00,
2013-07-19 17:10:00,90.2,72.9,29.90,SE,142,0.0,0.0,57,0.00,,---,0.01,VWS V14.01,2013-07-19 22:10:00,
2013-07-19 17:15:00,90.4,73.6,29.90,South,176,0.0,0.0,58,0.00,,---,0.01,VWS V14.01,2013-07-19 22:15:00,
2013-07-19 17:20:00,90.5,72.1,29.90,SSE,150,0.0,0.0,55,0.00,,---,0.01,VWS V14.01,2013-07-19 22:20:00,
2013-07-19 17:25:00,90.0,72.2,29.90,SSE,161,0.0,0.0,56,0.00,,---,0.01,VWS V14.01,2013-07-19 22:25:00,
2013-07-19 17:30:00,89.5,72.8,29.90,South,169,0.0,0.0,58,0.00,,---,0.01,VWS V14.01,2013-07-19 22:30:00,
2013-07-19 17:35:00,89.3,73.1,29.90,SSE,155,0.0,0.0,59,0.00,,---,0.01,VWS V14.01,2013-07-19 22:35:00,
2013-07-19 17:40:00,89.2,73.0,29.90,SSE,151,0.0,0.0,59,0.00,,---,0.01,VWS V14.01,2013-07-19 22:40:00,
2013-07-19 17:45:00,89.3,73.1,29.91,ESE,123,0.0,0.0,59,0.00,,---,0.01,VWS V14.01,2013-07-19 22:45:00,
2013-07-19 17:50:00,89.6,72.9,29.91,SE,142,0.0,0.0,58,0.00,,---,0.01,VWS V14.01,2013-07-19 22:50:00,
2013-07-19 17:55:00,89.5,72.3,29.91,SSE,162,0.0,0.0,57,0.00,,---,0.01,VWS V14.01,2013-07-19 22:55:00,
2013-07-19 18:00:00,89.3,72.6,29.90,SSE,164,0.0,0.0,58,0.00,,---,0.01,VWS V14.01,2013-07-19 23:00:00,
2013-07-19 18:05:00,89.2,72.5,29.91,SSE,168,0.0,0.0,58,0.00,,---,0.01,VWS V14.01,2013-07-19 23:05:00,
2013-07-19 18:10:00,89.3,72.6,29.91,ESE,119,0.0,0.0,58,0.00,,---,0.01,VWS V14.01,2013-07-19 23:10:00,
2013-07-19 18:15:00,89.3,73.1,29.91,SE,126,0.0,0.0,59,0.00,,---,0.01,VWS V14.01,2013-07-19 23:15:00,
2013-07-19 18:20:00,89.4,72.7,29.91,SE,142,0.0,0.0,58,0.00,,---,0.01,VWS V14.01,2013-07-19 23:20:00,
2013-07-19 18:25:00,89.3,72.6,29.91,SSE,165,0.0,0.0,58,0.00,,---,0.01,VWS V14.01,2013-07-19 23:25:00,
2013-07-19 18:30:00,89.2,73.0,29.92,ESE,113,0.0,0.0,59,0.00,,---,0.01,VWS V14.01,2013-07-19 23:30:00,
2013-07-19 18:35:00,89.2,73.0,29.92,SE,143,0.0,0.0,59,0.00,,---,0.01,VWS V14.01,2013-07-19 23:35:00,
2013-07-19 18:40:00,88.8,73.1,29.92,SE,142,0.0,0.0,60,0.00,,---,0.01,VWS V14.01,2013-07-19 23:40:00,
2013-07-19 18:45:00,88.6,72.9,29.92,SE,136,0.0,0.0,60,0.00,,---,0.01,VWS V14.01,2013-07-19 23:45:00,
2013-07-19 18:50:00,88.1,73.0,29.92,SSE,147,0.0,0.0,61,0.00,,---,0.01,VWS V14.01,2013-07-19 23:50:00,
2013-07-19 18:55:00,87.6,73.0,29.92,SSE,163,0.0,0.0,62,0.00,,---,0.01,VWS V14.01,2013-07-19 23:55:00,
2013-07-19 19:00:00,87.1,72.5,29.92,SSE,149,0.0,0.0,62,0.00,,---,0.01,VWS V14.01,2013-07-20 00:00:00,
2013-07-19 19:05:00,86.7,72.1,29.92,SSE,158,0.0,0.0,62,0.00,,---,0.01,VWS V14.01,2013-07-20 00:05:00,
2013-07-19 19:10:00,86.4,71.8,29.92,South,169,0.0,0.0,62,0.00,,---,0.01,VWS V14.01,2013-07-20 00:10:00,
2013-07-19 19:15:00,86.1,71.6,29.92,South,180,0.0,0.0,62,0.00,,---,0.01,VWS V14.01,2013-07-20 00:15:00,
2013-07-19 19:20:00,85.9,71.4,29.92,SSE,154,0.0,0.0,62,0.00,,---,0.01,VWS V14.01,2013-07-20 00:20:00,
2013-07-19 19:25:00,85.9,71.4,29.92,SSE,158,0.0,0.0,62,0.00,,---,0.01,VWS V14.01,2013-07-20 00:25:00,
2013-07-19 19:30:00,85.9,71.8,29.92,SSE,160,0.0,0.0,63,0.00,,---,0.01,VWS V14.01,2013-07-20 00:30:00,
2013-07-19 19:35:00,85.8,71.8,29.92,SE,138,0.0,0.0,63,0.00,,---,0.01,VWS V14.01,2013-07-20 00:35:00,
2013-07-19 19:40:00,85.6,72.0,29.92,SE,146,0.0,0.0,64,0.00,,---,0.01,VWS V14.01,2013-07-20 00:40:00,
2013-07-19 19:45:00,85.4,71.8,29.92,SE,146,0.0,0.0,64,0.00,,---,0.01,VWS V14.01,2013-07-20 00:45:00,
2013-07-19 19:50:00,85.2,72.1,29.93,SE,126,0.0,0.0,65,0.00,,---,0.01,VWS V14.01,2013-07-20 00:50:00,
2013-07-19 19:55:00,85.0,71.5,29.93,SSE,155,0.0,0.0,64,0.00,,---,0.01,VWS V14.01,2013-07-20 00:55:00,
2013-07-19 20:00:00,84.9,71.8,29.93,South,169,0.0,0.0,65,0.00,,---,0.01,VWS V14.01,2013-07-20 01:00:00,
2013-07-19 20:05:00,84.7,71.6,29.92,SE,138,0.0,0.0,65,0.00,,---,0.01,VWS V14.01,2013-07-20 01:05:00,
2013-07-19 20:10:00,84.5,71.4,29.92,SE,136,0.0,0.0,65,0.00,,---,0.01,VWS V14.01,2013-07-20 01:10:00,
2013-07-19 20:15:00,84.3,71.7,29.92,SE,141,0.0,0.0,66,0.00,,---,0.01,VWS V14.01,2013-07-20 01:15:00,
2013-07-19 20:20:00,84.1,71.5,29.92,SE,144,0.0,0.0,66,0.00,,---,0.01,VWS V14.01,2013-07-20 01:20:00,
2013-07-19 20:25:00,83.9,71.8,29.92,SSE,152,0.0,0.0,67,0.00,,---,0.01,VWS V14.01,2013-07-20 01:25:00,
2013-07-19 20:30:00,83.7,71.6,29.92,SSE,155,0.0,0.0,67,0.00,,---,0.01,VWS V14.01,2013-07-20 01:30:00,
2013-07-19 20:35:00,83.5,71.4,29.92,SE,129,0.0,0.0,67,0.00,,---,0.01,VWS V14.01,2013-07-20 01:35:00,
2013-07-19 20:40:00,83.3,71.2,29.92,SE,132,0.0,0.0,67,0.00,,---,0.01,VWS V14.01,2013-07-20 01:40:00,
2013-07-19 20:45:00,83.2,71.1,29.92,SE,146,0.0,0.0,67,0.00,,---,0.01,VWS V14.01,2013-07-20 01:45:00,
2013-07-19 20:50:00,83.0,71.4,29.92,SSE,153,0.0,0.0,68,0.00,,---,0.01,VWS V14.01,2013-07-20 01:50:00,
2013-07-19 20:55:00,82.8,71.2,29.92,South,178,0.0,0.0,68,0.00,,---,0.01,VWS V14.01,2013-07-20 01:55:00,
2013-07-19 21:00:00,82.7,71.5,29.92,SSE,159,0.0,0.0,69,0.00,,---,0.01,VWS V14.01,2013-07-20 02:00:00,
2013-07-19 21:05:00,82.4,71.2,29.92,SSE,157,0.0,0.0,69,0.00,,---,0.01,VWS V14.01,2013-07-20 02:05:00,
2013-07-19 21:10:00,82.2,71.4,29.92,SSE,164,0.0,0.0,70,0.00,,---,0.01,VWS V14.01,2013-07-20 02:10:00,
2013-07-19 21:15:00,82.1,71.3,29.92,SSE,164,0.0,0.0,70,0.00,,---,0.01,VWS V14.01,2013-07-20 02:15:00,
2013-07-19 21:20:00,82.0,71.3,29.93,SSE,149,0.0,0.0,70,0.00,,---,0.01,VWS V14.01,2013-07-20 02:20:00,
2013-07-19 21:25:00,82.0,71.7,29.93,SSE,153,0.0,0.0,71,0.00,,---,0.01,VWS V14.01,2013-07-20 02:25:00,
2013-07-19 21:30:00,81.9,71.6,29.93,SE,145,0.0,0.0,71,0.00,,---,0.01,VWS V14.01,2013-07-20 02:30:00,
2013-07-19 21:35:00,81.8,71.9,29.93,SE,132,0.0,0.0,72,0.00,,---,0.01,VWS V14.01,2013-07-20 02:35:00,
2013-07-19 21:40:00,81.6,71.7,29.93,South,173,0.0,0.0,72,0.00,,---,0.01,VWS V14.01,2013-07-20 02:40:00,
2013-07-19 21:45:00,81.5,72.0,29.93,SSE,160,0.0,0.0,73,0.00,,---,0.01,VWS V14.01,2013-07-20 02:45:00,
2013-07-19 21:50:00,81.5,72.0,29.93,SSE,149,0.0,0.0,73,0.00,,---,0.01,VWS V14.01,2013-07-20 02:50:00,
2013-07-19 21:55:00,81.4,71.9,29.93,SSE,158,0.0,0.0,73,0.00,,---,0.01,VWS V14.01,2013-07-20 02:55:00,
2013-07-19 22:00:00,81.2,72.1,29.93,SSE,150,0.0,0.0,74,0.00,,---,0.01,VWS V14.01,2013-07-20 03:00:00,
2013-07-19 22:05:00,81.1,72.0,29.94,SSE,162,0.0,0.0,74,0.00,,---,0.01,VWS V14.01,2013-07-20 03:05:00,
2013-07-19 22:10:00,81.0,71.9,29.94,SE,136,0.0,0.0,74,0.00,,---,0.01,VWS V14.01,2013-07-20 03:10:00,
2013-07-19 22:15:00,80.9,71.8,29.93,SE,127,0.0,0.0,74,0.00,,---,0.01,VWS V14.01,2013-07-20 03:15:00,
2013-07-19 22:20:00,80.9,72.2,29.93,SE,140,0.0,0.0,75,0.00,,---,0.01,VWS V14.01,2013-07-20 03:20:00,
2013-07-19 22:25:00,80.7,72.0,29.94,SSE,157,0.0,0.0,75,0.00,,---,0.01,VWS V14.01,2013-07-20 03:25:00,
2013-07-19 22:30:00,80.5,72.2,29.94,SSE,160,0.0,0.0,76,0.00,,---,0.01,VWS V14.01,2013-07-20 03:30:00,
2013-07-19 22:35:00,80.4,72.2,29.93,SSE,165,0.0,0.0,76,0.00,,---,0.01,VWS V14.01,2013-07-20 03:35:00,
2013-07-19 22:40:00,80.3,72.1,29.93,SSE,148,0.0,0.0,76,0.00,,---,0.01,VWS V14.01,2013-07-20 03:40:00,
2013-07-19 22:45:00,80.2,72.3,29.93,South,169,0.0,0.0,77,0.00,,---,0.01,VWS V14.01,2013-07-20 03:45:00,
2013-07-19 22:50:00,80.1,72.2,29.93,South,170,0.0,0.0,77,0.00,,---,0.01,VWS V14.01,2013-07-20 03:50:00,
2013-07-19 22:55:00,79.9,72.1,29.93,SSE,156,0.0,0.0,77,0.00,,---,0.01,VWS V14.01,2013-07-20 03:55:00,
2013-07-19 23:00:00,79.8,72.3,29.93,SSE,161,0.0,0.0,78,0.00,,---,0.01,VWS V14.01,2013-07-20 04:00:00,
2013-07-19 23:01:00,79.8,72.3,29.93,SSE,161,0.0,0.0,78,0.00,,---,0.01,VWS V14.01,2013-07-20 04:01:00,
2013-07-19 23:06:00,79.6,72.1,29.93,SSE,162,0.0,0.0,78,0.00,,---,0.01,VWS V14.01,2013-07-20 04:06:00,
2013-07-19 23:11:00,79.5,72.0,29.93,SSE,166,0.0,0.0,78,0.00,,---,0.01,VWS V14.01,2013-07-20 04:11:00,
2013-07-19 23:16:00,79.4,72.3,29.93,SSE,164,0.0,0.0,79,0.00,,---,0.01,VWS V14.01,2013-07-20 04:16:00,
2013-07-19 23:21:00,79.3,72.2,29.93,SSE,161,0.0,0.0,79,0.00,,---,0.01,VWS V14.01,2013-07-20 04:21:00,
2013-07-19 23:26:00,79.1,72.0,29.93,SSE,159,0.0,0.0,79,0.00,,---,0.01,VWS V14.01,2013-07-20 04:26:00,
2013-07-19 23:31:00,79.1,72.4,29.94,SSE,159,0.0,0.0,80,0.00,,---,0.01,VWS V14.01,2013-07-20 04:31:00,
2013-07-19 23:36:00,79.0,72.3,29.93,SSE,156,0.0,0.0,80,0.00,,---,0.01,VWS V14.01,2013-07-20 04:36:00,
2013-07-19 23:41:00,78.9,72.2,29.93,SSE,154,0.0,0.0,80,0.00,,---,0.01,VWS V14.01,2013-07-20 04:41:00,
2013-07-19 23:46:00,78.7,72.0,29.93,SSE,154,0.0,0.0,80,0.00,,---,0.01,VWS V14.01,2013-07-20 04:46:00,
2013-07-19 23:51:00,78.5,72.2,29.93,SSE,154,0.0,0.0,81,0.00,,---,0.01,VWS V14.01,2013-07-20 04:51:00,
2013-07-19 23:56:00,78.4,72.1,29.92,SSE,154,0.0,0.0,81,0.00,,---,0.01,VWS V14.01,2013-07-20 04:56:00,